Regional Weather Roundup
Issued by NWS Sioux Falls, SD

Home | Current Version | Previous Version | Text Only | Print | Product List | Glossary Off
Versions: 1 2 3 4 5 6 7 8 9 10 11 12 13 14 15 16 17 18 19 20 21 22 23 24 25 26 27 28 29 30 31 32 33 34 35 36 37 38 39 40 41 42 43 44 45 46 47 48 49 50

000
ASUS43 KFSD 181402
RWRFSD

WEATHER ROUNDUP FOR SE SOUTH DAKOTA/SW MINNESOTA/NW IOWA
NATIONAL WEATHER SERVICE SIOUX FALLS SD
900 AM CDT THU SEP 18 2014

NOTE: "FAIR" INDICATES FEW OR NO CLOUDS BELOW 12,000 FEET WITH NO
SIGNIFICANT WEATHER AND OR OBSTRUCTIONS TO VISIBILITY.


SDZ038>040-050-052>070-181500-
SOUTHEAST SOUTH DAKOTA

CITY           SKY/WX    TMP DP  RH WIND       PRES   REMARKS
CHAMBERLAIN    CLOUDY    58  55  91 SE8       29.95R
HURON          PTSUNNY   56  54  93 SE6       29.96R
MADISON        FAIR      57  57 100 S10       30.01R
MITCHELL       PTSUNNY   59  58  96 S9        29.98R
SIOUX FALLS    MOSUNNY   62  57  83 S12       30.01S
WINNER         FAIR      63  60  90 S7        29.92S
YANKTON        PTSUNNY   61  57  88 SE5       30.00R
$$

MNZ071-072-080-081-089-090-097-098-181500-
SOUTHWEST MINNESOTA

CITY           SKY/WX    TMP DP  RH WIND       PRES   REMARKS
FAIRMONT       SUNNY     55  50  82 S8        30.07R
JACKSON        SUNNY     59  54  82 S7        30.07R
LUVERNE        PTSUNNY   59  54  82 SE5       30.04R
MARSHALL       MOSUNNY   54  48  82 SE8       30.03R
MONTEVIDEO     FOG       52  52 100 SE14      30.05S VSB 1/2
PIPESTONE      MOSUNNY   59  55  88 S6        30.02S
REDWOOD FALLS  CLOUDY    53  53 100 E6        30.05R FOG
TRACY          SUNNY     56  54  92 CALM      30.04S
WINDOM         MOSUNNY   59  54  82 SE3       30.06R
WORTHINGTON    SUNNY     57  55  94 S6        30.05F
$$

IAZ001>003-012>014-020>022-031-032-NEZ013-014-SDZ071-181500-
NORTHWEST IOWA

CITY           SKY/WX    TMP DP  RH WIND       PRES   REMARKS
CHEROKEE       SUNNY     58  58  99 S3        30.05S
DENISON        PTSUNNY   57  57 100 SE7G13    30.04R FOG
ESTHERVILLE    SUNNY     55  55 100 S9        30.07R FOG
LE MARS        SUNNY     61  57  88 SE8       30.03S
ORANGE CITY    SUNNY     61  55  82 SE3       30.04R
SHELDON        MOSUNNY   57  55  94 SE3       30.03R
SIOUX CITY     SUNNY     61  58  90 SE6       30.03R
SPENCER        MOSUNNY   57  54  89 SE7       30.06R
STORM LAKE     FOG       55  55 100 SE6       30.06R VSB 1/2
$$

ABBREVIATIONS USED IN REMARKS
   TC - TEMPERATURE IN CELSIUS
  WCI - WIND CHILL INDEX
   HX - HEAT INDEX
  VSB - VISIBILITY



USA.gov is the U.S. government's official web portal to all federal, state and local government web resources and services.